Petersburg, AK

5:23 AM AKST on February 22, 2017 (GMT -0900)
Johnson Petersburg

Weather History for PAPG - January, 2013

Change the Weather History Date:

Sunday, January 20, 2013

  Actual Average Record
Temperature  
Mean Temperature 34 °F -  
Max Temperature 39 °F 32 °F 46 °F (1991)
Min Temperature 30 °F 24 °F 12 °F (1999)
Degree Days  
Heating Degree Days 30    
Moisture  
Dew Point 31 °F    
Average Humidity 84    
Maximum Humidity 93    
Minimum Humidity 70    
Precipitation  
Precipitation 0.00 in - - ()
Sea Level Pressure  
Sea Level Pressure 30.25 in    
Wind  
Wind Speed 2 mph (WSW)    
Max Wind Speed 8 mph    
Max Gust Speed -    
Visibility 10 miles    
Events      
Averages and records for this station are not official NWS values.
T = Trace of Precipitation, MM = Missing Value Source: NWS Daily Summary

Daily Weather History Graph

Daily Weather History Graph

Search for Another Location

Airport or City:

Trip Planner

Search our weather history database for the weather conditions in past years. The results will help you decide how hot, cold, wet, or windy it might be!

Date:

Astronomy

Jan. 20, 2013 Rise Set
Actual Time 8:10 AM AKST 3:56 PM AKST
Civil Twilight 7:25 AM AKST 4:41 PM AKST
Nautical Twilight 6:37 AM AKST 5:28 PM AKST
Astronomical Twilight 5:52 AM AKST 6:13 PM AKST
Moon 11:04 AM AKST (1/20) 2:44 AM AKST (1/20)
Length of Visible Light 9h 15m
Length of Day
7h 46m
Waxing Gibbous, 67% of the Moon is Illuminated
Jan 20
Waxing Gibbous
Jan 26
Full
Feb 3
Last Quarter
Feb 9
New
Feb 17
First Quarter

Hourly Weather History & Observations

Time (AKST) Temp. Windchill Dew Point Humidity Pressure Visibility Wind Dir Wind Speed Gust Speed Precip Events Conditions
12:16 AM 33.8 °F - 30.2 °F 87% 30.31 in 10.0 mi Calm Calm - N/A   Partly Cloudy
12:36 AM 33.8 °F - 30.2 °F 87% 30.31 in 10.0 mi Calm Calm - N/A   Scattered Clouds
12:56 AM 33.8 °F - 30.2 °F 87% 30.31 in 10.0 mi Calm Calm - N/A   Partly Cloudy
1:16 AM 33.8 °F - 30.2 °F 87% 30.31 in 10.0 mi Calm Calm - N/A   Clear
1:36 AM 33.8 °F 29.6 °F 30.2 °F 87% 30.30 in 10.0 mi ESE 4.6 mph - N/A   Scattered Clouds
1:56 AM 33.8 °F - 30.2 °F 87% 30.30 in 10.0 mi Calm Calm - N/A   Mostly Cloudy
2:16 AM 33.8 °F 29.6 °F 30.2 °F 87% 30.29 in 10.0 mi SSW 4.6 mph - N/A   Overcast
2:36 AM 33.8 °F - 30.2 °F 87% 30.30 in 10.0 mi Calm Calm - N/A   Overcast
2:56 AM 33.8 °F - 32.0 °F 93% 30.30 in 10.0 mi Calm Calm - N/A   Overcast
3:16 AM 33.8 °F - 30.2 °F 87% 30.29 in 10.0 mi Calm Calm - N/A   Scattered Clouds
3:36 AM 33.8 °F 30.8 °F 30.2 °F 87% 30.28 in 10.0 mi WSW 3.5 mph - N/A   Clear
3:56 AM 33.8 °F - 30.2 °F 87% 30.29 in 10.0 mi Calm Calm - N/A   Clear
4:16 AM 33.8 °F 29.6 °F 30.2 °F 87% 30.28 in 10.0 mi SSW 4.6 mph - N/A   Clear
4:36 AM 33.8 °F - 30.2 °F 87% 30.28 in 10.0 mi Calm Calm - N/A   Clear
4:56 AM 33.8 °F 30.8 °F 30.2 °F 87% 30.28 in 10.0 mi WSW 3.5 mph - N/A   Clear
5:16 AM 33.8 °F - 30.2 °F 87% 30.28 in 10.0 mi Calm Calm - N/A   Clear
5:36 AM 33.8 °F - 30.2 °F 87% 30.28 in 10.0 mi Calm Calm - N/A   Clear
5:56 AM 32.0 °F 27.5 °F 30.2 °F 93% 30.27 in 10.0 mi SSW 4.6 mph - N/A   Clear
6:16 AM 33.8 °F 27.7 °F 30.2 °F 87% 30.27 in 10.0 mi SW 6.9 mph - N/A   Clear
6:36 AM 33.8 °F 30.8 °F 30.2 °F 87% 30.27 in 10.0 mi South 3.5 mph - N/A   Clear
6:56 AM 32.0 °F 27.5 °F 28.4 °F 87% 30.27 in 10.0 mi West 4.6 mph - N/A   Scattered Clouds
7:16 AM 30.2 °F - 28.4 °F 93% 30.27 in 10.0 mi Calm Calm - N/A   Scattered Clouds
7:36 AM 32.0 °F - 30.2 °F 93% 30.28 in 10.0 mi Calm Calm - N/A   Scattered Clouds
7:56 AM 32.0 °F - 28.4 °F 87% 30.28 in 10.0 mi Calm Calm - N/A   Scattered Clouds
8:16 AM 30.2 °F - 28.4 °F 93% 30.27 in 10.0 mi Calm Calm - N/A   Scattered Clouds
8:36 AM 30.2 °F - 28.4 °F 93% 30.28 in 10.0 mi Calm Calm - N/A   Scattered Clouds
8:56 AM 30.2 °F - 28.4 °F 93% 30.28 in 10.0 mi Calm Calm - N/A   Scattered Clouds
9:16 AM 32.0 °F - 30.2 °F 93% 30.28 in 10.0 mi Calm Calm - N/A   Scattered Clouds
9:36 AM 32.0 °F - 30.2 °F 93% 30.29 in 10.0 mi Calm Calm - N/A   Scattered Clouds
9:56 AM 32.0 °F 28.7 °F 30.2 °F 93% 30.28 in 10.0 mi West 3.5 mph - N/A   Scattered Clouds
10:16 AM 33.8 °F - 30.2 °F 87% 30.30 in 10.0 mi Calm Calm - N/A   Scattered Clouds
10:36 AM 33.8 °F - 30.2 °F 87% 30.29 in 10.0 mi Calm Calm - N/A   Scattered Clouds
10:56 AM 33.8 °F 30.8 °F 30.2 °F 87% 30.30 in 10.0 mi West 3.5 mph - N/A   Scattered Clouds
11:16 AM 33.8 °F 30.8 °F 30.2 °F 87% 30.28 in 10.0 mi SW 3.5 mph - N/A   Scattered Clouds
11:36 AM 35.6 °F - 32.0 °F 87% 30.27 in 10.0 mi Calm Calm - N/A   Scattered Clouds
11:56 AM 35.6 °F 32.8 °F 32.0 °F 87% 30.27 in 10.0 mi West 3.5 mph - N/A   Mostly Cloudy
12:16 PM 35.6 °F - 30.2 °F 81% 30.26 in 10.0 mi Calm Calm - N/A   Mostly Cloudy
12:36 PM 35.6 °F 32.8 °F 30.2 °F 81% 30.26 in 10.0 mi West 3.5 mph - N/A   Mostly Cloudy
12:56 PM 35.6 °F 32.8 °F 30.2 °F 81% 30.26 in 10.0 mi West 3.5 mph - N/A   Mostly Cloudy
1:16 PM 35.6 °F - 30.2 °F 81% 30.25 in 10.0 mi Calm Calm - N/A   Mostly Cloudy
1:36 PM 37.4 °F 32.8 °F 32.0 °F 81% 30.24 in 10.0 mi WSW 5.8 mph - N/A   Mostly Cloudy
1:56 PM 37.4 °F 33.8 °F 32.0 °F 81% 30.24 in 10.0 mi North 4.6 mph - N/A   Mostly Cloudy
2:16 PM 37.4 °F - 30.2 °F 75% 30.24 in 10.0 mi Calm Calm - N/A   Mostly Cloudy
2:36 PM 37.4 °F 34.9 °F 32.0 °F 81% 30.23 in 10.0 mi West 3.5 mph - N/A   Mostly Cloudy
2:56 PM 37.4 °F 32.1 °F 30.2 °F 75% 30.23 in 10.0 mi WSW 6.9 mph - N/A   Scattered Clouds
3:16 PM 37.4 °F 33.8 °F 30.2 °F 75% 30.23 in 10.0 mi WSW 4.6 mph - N/A   Scattered Clouds
3:36 PM 39.2 °F 35.9 °F 30.2 °F 70% 30.22 in 10.0 mi WSW 4.6 mph - N/A   Scattered Clouds
3:56 PM 37.4 °F 34.9 °F 32.0 °F 81% 30.23 in 10.0 mi North 3.5 mph - N/A   Scattered Clouds
4:16 PM 37.4 °F 34.9 °F 30.2 °F 75% 30.22 in 10.0 mi West 3.5 mph - N/A   Scattered Clouds
4:36 PM 35.6 °F 31.7 °F 30.2 °F 81% 30.22 in 10.0 mi West 4.6 mph - N/A   Scattered Clouds
4:56 PM 35.6 °F 31.7 °F 32.0 °F 87% 30.22 in 10.0 mi West 4.6 mph - N/A   Overcast
5:16 PM 35.6 °F - 32.0 °F 87% 30.22 in 10.0 mi Calm Calm - N/A   Overcast
5:36 PM 35.6 °F 31.7 °F 30.2 °F 81% 30.21 in 10.0 mi WSW 4.6 mph - N/A   Overcast
5:56 PM 35.6 °F 32.8 °F 30.2 °F 81% 30.21 in 10.0 mi WSW 3.5 mph - N/A   Overcast
6:16 PM 37.4 °F - 30.2 °F 75% 30.21 in 10.0 mi Calm Calm - N/A   Overcast
6:36 PM 35.6 °F - 30.2 °F 81% 30.21 in 10.0 mi Calm Calm - N/A   Overcast
6:56 PM 35.6 °F - 30.2 °F 81% 30.21 in 10.0 mi Calm Calm - N/A   Overcast
7:16 PM 35.6 °F 31.7 °F 30.2 °F 81% 30.22 in 10.0 mi West 4.6 mph - N/A   Overcast
7:36 PM 37.4 °F - 30.2 °F 75% 30.20 in 10.0 mi Calm Calm - N/A   Overcast
7:56 PM 35.6 °F 32.8 °F 30.2 °F 81% 30.20 in 10.0 mi SSW 3.5 mph - N/A   Overcast
8:16 PM 35.6 °F 32.8 °F 30.2 °F 81% 30.21 in 10.0 mi SW 3.5 mph - N/A   Overcast
8:36 PM 37.4 °F - 32.0 °F 81% 30.20 in 10.0 mi Calm Calm - N/A   Overcast
8:56 PM 37.4 °F 33.8 °F 32.0 °F 81% 30.21 in 10.0 mi West 4.6 mph - N/A   Overcast
9:16 PM 35.6 °F 31.7 °F 30.2 °F 81% 30.21 in 10.0 mi WSW 4.6 mph - N/A   Overcast
9:36 PM 37.4 °F 32.8 °F 30.2 °F 75% 30.22 in 10.0 mi SSW 5.8 mph - N/A   Overcast
9:56 PM 35.6 °F 29.2 °F 33.8 °F 93% 30.21 in 10.0 mi NE 8.1 mph - N/A   Overcast
10:16 PM 37.4 °F - 32.0 °F 81% 30.20 in 10.0 mi Calm Calm - N/A   Overcast
10:36 PM 35.6 °F 30.7 °F 32.0 °F 87% 30.20 in 10.0 mi West 5.8 mph - N/A   Mostly Cloudy
10:56 PM 37.4 °F - 33.8 °F 87% 30.21 in 10.0 mi Calm Calm - N/A   Overcast
11:16 PM 39.2 °F 35.9 °F 32.0 °F 75% 30.21 in 10.0 mi West 4.6 mph - N/A   Overcast
11:36 PM 37.4 °F - 32.0 °F 81% 30.20 in 10.0 mi Calm Calm - N/A   Overcast
11:56 PM 37.4 °F 33.8 °F 30.2 °F 75% 30.20 in 10.0 mi WSW 4.6 mph - N/A   Overcast